START_TIME,STEP,MOV.,M15,t_acc.,M20,t_acc.
1981-08-30 03:00:44.470 ,2,1,0.,24.0,0.,24.0
1981-08-30 03:01:08.470 ,3,1,0.,24.0,0.,24.0
1981-08-30 03:01:32.470 ,3,0,0.,24.0,0.,24.0
1981-08-30 03:01:56.470 ,4,1,0.,24.0,0.,24.0
1981-08-30 03:02:20.470 ,4,0,0.,24.0,0.,24.0
1981-08-30 03:02:44.470 ,5,1,0.,24.0,0.,24.0
1981-08-30 03:03:08.470 ,5,0,0.,24.0,0.,24.0
1981-08-30 03:03:32.470 ,6,1,0.,24.0,0.,24.0
1981-08-30 03:03:56.470 ,6,0,0.,24.0,0.,24.0
1981-08-30 03:04:20.470 ,7,1,0.,24.0,0.,24.0
1981-08-30 03:04:44.470 ,7,0,0.,24.0,0.,24.0
1981-08-30 03:05:08.470 ,7,1,0.,24.0,0.,24.0
1981-08-30 03:05:32.470 ,7,0,0.,24.0,0.,24.0
1981-08-30 03:05:56.470 ,6,1,0.,24.0,0.,24.0
1981-08-30 03:06:20.470 ,6,0,0.,24.0,0.,24.0
1981-08-30 03:06:44.470 ,5,1,0.,24.0,0.,24.0
1981-08-30 03:07:08.470 ,5,0,0.,24.0,0.,24.0
1981-08-30 03:07:32.470 ,4,1,0.,24.0,0.,24.0
1981-08-30 03:07:56.470 ,4,0,0.,24.0,0.,24.0
1981-08-30 03:08:20.470 ,3,1,0.,24.0,0.,24.0
1981-08-30 03:08:44.470 ,3,0,0.,24.0,0.,24.0
1981-08-30 03:09:08.470 ,2,1,0.,24.0,0.,24.0
1981-08-30 03:09:32.470 ,2,0,0.,24.0,0.,24.0
1981-08-30 03:09:56.470 ,1,1,0.,24.0,0.,24.0
1981-08-30 03:10:20.470 ,1,0,0.,24.0,0.,24.0
1981-08-30 03:10:44.470 ,0,1,0.,24.0,0.,24.0
1981-08-30 03:11:08.470 ,0,0,0.,24.0,0.,24.0
1981-08-30 03:11:32.470 ,0,1,0.,24.0,0.,24.0
1981-08-30 03:11:56.470 ,0,0,0.,24.0,0.,24.0
1981-08-30 03:12:20.470 ,1,1,0.,24.0,0.,24.0
1981-08-30 03:12:44.470 ,1,0,0.,24.0,0.,24.0
1981-08-30 03:13:08.470 ,2,1,0.,24.0,0.,24.0
1981-08-30 03:13:32.470 ,2,0,0.,24.0,0.,24.0
1981-08-30 03:13:56.470 ,3,1,0.,24.0,0.,24.0
1981-08-30 03:14:20.470 ,4,1,0.,24.0,0.,24.0
1981-08-30 03:14:44.470 ,5,1,0.,24.0,0.,24.0
1981-08-30 03:15:08.470 ,6,1,0.,24.0,0.,24.0
1981-08-30 03:15:32.470 ,7,1,0.,24.0,0.,24.0
1981-08-30 03:15:56.470 ,7,1,0.,24.0,0.,24.0
1981-08-30 03:16:20.470 ,6,1,0.,24.0,0.,24.0
1981-08-30 03:16:44.470 ,5,1,0.,24.0,0.,24.0
1981-08-30 03:17:08.470 ,4,1,0.,24.0,0.,24.0
1981-08-30 03:17:32.470 ,3,1,0.,24.0,0.,24.0
1981-08-30 03:17:56.470 ,2,1,0.,24.0,0.,24.0
1981-08-30 03:18:20.470 ,1,1,0.,24.0,0.,24.0
1981-08-30 03:18:44.470 ,0,1,0.,24.0,0.,24.0
1981-08-30 03:19:08.470 ,0,1,0.,24.0,0.,24.0
1981-08-30 03:19:32.470 ,1,1,0.,24.0,0.,24.0
1981-08-30 03:19:56.470 ,2,1,0.,24.0,0.,24.0
1981-08-30 03:20:20.470 ,3,1,0.,24.0,0.,24.0
1981-08-30 03:20:44.470 ,3,0,0.,24.0,0.,24.0
1981-08-30 03:21:08.470 ,4,1,0.,24.0,0.,24.0
1981-08-30 03:21:32.470 ,4,0,0.,24.0,0.,24.0
1981-08-30 03:21:56.470 ,5,1,0.,24.0,0.,24.0
1981-08-30 03:22:20.470 ,5,0,0.,24.0,0.,24.0
1981-08-30 03:22:44.470 ,6,1,0.,24.0,0.,24.0
1981-08-30 03:23:08.470 ,6,0,0.,24.0,0.,24.0
1981-08-30 03:23:32.470 ,7,1,0.,24.0,0.,24.0
1981-08-30 03:23:56.470 ,7,0,0.,24.0,0.,24.0
1981-08-30 03:24:20.470 ,7,1,0.,24.0,0.,24.0
1981-08-30 03:24:44.470 ,7,0,0.,24.0,0.,24.0
1981-08-30 03:25:08.470 ,6,1,0.,24.0,0.,24.0
1981-08-30 03:25:32.470 ,6,0,0.,24.0,0.,24.0
1981-08-30 03:25:56.470 ,5,1,0.,24.0,0.,24.0
1981-08-30 03:26:20.470 ,5,0,0.,24.0,0.,24.0
1981-08-30 03:26:44.470 ,4,1,0.,24.0,0.,24.0
1981-08-30 03:27:08.470 ,4,0,0.,24.0,0.,24.0
1981-08-30 03:27:32.470 ,3,1,0.,24.0,0.,24.0
1981-08-30 03:27:56.470 ,3,0,0.,24.0,0.,24.0
1981-08-30 03:28:20.470 ,2,1,0.,24.0,0.,24.0
1981-08-30 03:28:44.470 ,2,0,0.,24.0,0.,24.0
1981-08-30 03:29:08.470 ,1,1,0.,24.0,0.,24.0
1981-08-30 03:29:32.470 ,1,0,0.,24.0,0.,24.0
1981-08-30 03:29:56.470 ,0,1,0.,24.0,0.,24.0
1981-08-30 03:30:20.470 ,0,0,0.,24.0,0.,24.0
1981-08-30 03:30:44.470 ,0,1,0.,24.0,0.,24.0
1981-08-30 03:31:08.470 ,0,0,0.,24.0,0.,24.0
1981-08-30 03:31:32.470 ,1,1,0.,24.0,0.,24.0
1981-08-30 03:31:56.470 ,1,0,0.,24.0,0.,24.0
1981-08-30 03:32:20.470 ,2,1,0.,24.0,0.,24.0
1981-08-30 03:32:44.470 ,2,0,0.,24.0,0.,24.0
1981-08-30 03:33:08.470 ,3,1,0.,24.0,0.,24.0
1981-08-30 03:33:32.470 ,4,1,0.,24.0,0.,24.0
1981-08-30 03:33:56.470 ,5,1,0.,24.0,0.,24.0
1981-08-30 03:34:20.470 ,6,1,0.,24.0,0.,24.0
1981-08-30 03:34:44.470 ,7,1,0.,24.0,0.,24.0
1981-08-30 03:35:08.470 ,7,1,0.,24.0,0.,24.0
1981-08-30 03:35:32.470 ,6,1,0.,24.0,0.,24.0
1981-08-30 03:35:56.470 ,5,1,0.,24.0,0.,24.0
1981-08-30 03:36:20.470 ,4,1,0.,24.0,0.,24.0
1981-08-30 03:36:44.470 ,3,1,0.,24.0,0.,24.0
1981-08-30 03:37:08.470 ,2,1,0.,24.0,0.,24.0
1981-08-30 03:37:32.470 ,0,0,0.,24.0,0.,24.0
1981-08-30 03:38:01.870 ,0,0,0.,24.0,0.,24.0
1981-08-30 03:38:20.470 ,0,1,0.,24.0,0.,24.0
1981-08-30 03:38:44.470 ,1,1,0.,24.0,0.,24.0
1981-08-30 03:39:08.470 ,2,1,0.,24.0,0.,24.0
1981-08-30 03:39:32.470 ,3,1,0.,24.0,0.,24.0
1981-08-30 03:39:56.470 ,3,0,0.,24.0,0.,24.0
1981-08-30 03:40:20.470 ,4,1,0.,24.0,0.,24.0
1981-08-30 03:40:44.470 ,4,0,0.,24.0,0.,24.0
1981-08-30 03:41:08.470 ,5,1,0.,24.0,0.,24.0
1981-08-30 03:41:32.470 ,5,0,0.,24.0,0.,24.0
1981-08-30 03:41:56.470 ,6,1,0.,24.0,0.,24.0
1981-08-30 03:42:20.470 ,6,0,0.,24.0,0.,24.0
1981-08-30 03:42:44.470 ,7,1,0.,24.0,0.,24.0
1981-08-30 03:43:08.470 ,7,0,0.,24.0,0.,24.0
1981-08-30 03:43:32.460 ,7,1,0.,24.0,0.,24.0
1981-08-30 03:43:56.460 ,7,0,0.,24.0,0.,24.0
1981-08-30 03:44:20.460 ,6,1,0.,24.0,0.,24.0
1981-08-30 03:44:44.460 ,6,0,0.,24.0,0.,24.0
1981-08-30 03:45:08.460 ,5,1,0.,24.0,0.,24.0
1981-08-30 03:45:32.460 ,5,0,0.,24.0,0.,24.0
1981-08-30 03:45:56.460 ,4,1,0.,24.0,0.,24.0
1981-08-30 03:46:20.460 ,4,0,0.,24.0,0.,24.0
1981-08-30 03:46:44.460 ,3,1,0.,24.0,0.,24.0
1981-08-30 03:47:08.460 ,3,0,0.,24.0,0.,24.0
1981-08-30 03:47:32.460 ,2,1,0.,24.0,0.,24.0
1981-08-30 03:47:56.460 ,2,0,0.,24.0,0.,24.0
1981-08-30 03:48:20.460 ,1,1,0.,24.0,0.,24.0
1981-08-30 03:48:44.460 ,1,0,0.,24.0,0.,24.0
1981-08-30 03:49:08.460 ,0,1,0.,24.0,0.,24.0
1981-08-30 03:49:32.460 ,0,0,0.,24.0,0.,24.0
1981-08-30 03:49:56.460 ,0,1,0.,24.0,0.,24.0
1981-08-30 03:50:20.460 ,0,0,0.,24.0,0.,24.0
1981-08-30 03:50:44.460 ,1,1,0.,24.0,0.,24.0
1981-08-30 03:51:08.460 ,1,0,0.,24.0,0.,24.0
1981-08-30 03:51:32.460 ,2,1,0.,24.0,0.,24.0
1981-08-30 03:51:56.460 ,2,0,0.,24.0,0.,24.0
1981-08-30 03:52:20.460 ,3,1,0.,24.0,0.,24.0
1981-08-30 03:52:44.460 ,4,1,0.,24.0,0.,24.0
1981-08-30 03:53:08.460 ,5,1,0.,24.0,0.,24.0
1981-08-30 03:53:32.460 ,6,1,0.,24.0,0.,24.0
1981-08-30 03:53:56.460 ,7,1,0.,24.0,0.,24.0
1981-08-30 03:54:20.460 ,7,1,0.,24.0,0.,24.0
1981-08-30 03:54:44.460 ,6,1,0.,24.0,0.,24.0
1981-08-30 03:55:08.460 ,5,1,0.,24.0,0.,24.0
1981-08-30 03:55:32.460 ,4,1,0.,24.0,0.,24.0
1981-08-30 03:55:56.460 ,3,1,0.,24.0,0.,24.0
1981-08-30 03:56:20.460 ,2,1,0.,24.0,0.,24.0
1981-08-30 03:56:44.460 ,1,1,0.,24.0,0.,24.0
1981-08-30 03:57:08.460 ,0,1,0.,24.0,0.,24.0
1981-08-30 03:57:32.460 ,0,1,0.,24.0,0.,24.0
1981-08-30 03:57:56.460 ,1,1,0.,24.0,0.,24.0
1981-08-30 03:58:20.460 ,2,1,0.,24.0,0.,24.0
1981-08-30 03:58:44.460 ,3,1,0.,24.0,0.,24.0
1981-08-30 03:59:08.460 ,3,0,0.,24.0,0.,24.0
1981-08-30 03:59:32.460 ,4,1,0.,24.0,0.,24.0
1981-08-30 03:59:56.460 ,4,0,0.,24.0,0.,24.0
1981-08-30 04:00:20.460 ,5,1,0.,24.0,0.,24.0
1981-08-30 04:00:44.460 ,5,0,0.,24.0,0.,24.0
1981-08-30 04:01:08.460 ,6,1,0.,24.0,0.,24.0
1981-08-30 04:01:32.460 ,6,0,0.,24.0,0.,24.0
1981-08-30 04:01:56.460 ,7,1,0.,24.0,0.,24.0
1981-08-30 04:02:20.460 ,7,0,0.,24.0,0.,24.0
1981-08-30 04:02:44.460 ,7,1,0.,24.0,0.,24.0
1981-08-30 04:03:08.460 ,7,0,0.,24.0,0.,24.0
1981-08-30 04:03:32.460 ,6,1,0.,24.0,0.,24.0
1981-08-30 04:03:56.460 ,6,0,0.,24.0,0.,24.0
1981-08-30 04:04:20.460 ,5,1,0.,24.0,0.,24.0
1981-08-30 04:04:44.460 ,5,0,0.,24.0,0.,24.0
1981-08-30 04:05:08.460 ,4,1,0.,24.0,0.,24.0
1981-08-30 04:05:32.460 ,4,0,0.,24.0,0.,24.0
1981-08-30 04:05:56.460 ,3,1,0.,24.0,0.,24.0
1981-08-30 04:06:20.460 ,3,0,0.,24.0,0.,24.0
1981-08-30 04:06:44.460 ,2,1,0.,24.0,0.,24.0
1981-08-30 04:07:08.460 ,2,0,0.,24.0,0.,24.0
1981-08-30 04:07:32.460 ,1,1,0.,24.0,0.,24.0
1981-08-30 04:07:56.460 ,1,0,0.,24.0,0.,24.0
1981-08-30 04:08:20.460 ,0,1,0.,24.0,0.,24.0
1981-08-30 04:08:44.460 ,0,0,0.,24.0,0.,24.0
1981-08-30 04:09:08.460 ,0,1,0.,24.0,0.,24.0
1981-08-30 04:09:32.460 ,0,0,0.,24.0,0.,24.0
1981-08-30 04:09:56.460 ,1,1,0.,24.0,0.,24.0
1981-08-30 04:10:20.460 ,1,0,0.,24.0,0.,24.0
1981-08-30 04:10:44.460 ,2,1,0.,24.0,0.,24.0
1981-08-30 04:11:08.460 ,2,0,0.,24.0,0.,24.0
1981-08-30 04:11:32.460 ,3,1,0.,24.0,0.,24.0
1981-08-30 04:11:56.460 ,4,1,0.,24.0,0.,24.0
1981-08-30 04:12:20.460 ,5,1,0.,24.0,0.,24.0
1981-08-30 04:12:44.460 ,6,1,0.,24.0,0.,24.0
1981-08-30 04:13:08.460 ,7,1,0.,24.0,0.,24.0
1981-08-30 04:13:32.460 ,7,1,0.,24.0,0.,24.0
1981-08-30 04:13:56.460 ,6,1,0.,24.0,0.,24.0
1981-08-30 04:14:20.460 ,5,1,0.,24.0,0.,24.0
1981-08-30 04:14:44.460 ,4,1,0.,24.0,0.,24.0
1981-08-30 04:15:08.460 ,3,1,0.,24.0,0.,24.0
1981-08-30 04:15:32.460 ,2,1,0.,24.0,0.,24.0
1981-08-30 04:15:56.460 ,1,1,0.,24.0,0.,24.0
1981-08-30 04:16:20.460 ,0,1,0.,24.0,0.,24.0
1981-08-30 04:16:44.460 ,0,1,0.,24.0,0.,24.0
1981-08-30 04:17:08.460 ,1,1,0.,24.0,0.,24.0
1981-08-30 04:17:32.460 ,2,1,0.,24.0,0.,24.0
1981-08-30 04:17:56.460 ,3,1,0.,24.0,0.,24.0
1981-08-30 04:18:20.460 ,3,0,0.,24.0,0.,24.0
1981-08-30 04:18:44.460 ,4,1,0.,24.0,0.,24.0
1981-08-30 04:19:08.460 ,4,0,0.,24.0,0.,24.0
1981-08-30 04:19:32.460 ,5,1,0.,24.0,0.,24.0
1981-08-30 04:19:56.460 ,5,0,0.,24.0,0.,24.0
1981-08-30 04:20:20.460 ,6,1,0.,24.0,0.,24.0
1981-08-30 04:20:44.460 ,6,0,0.,24.0,0.,24.0
1981-08-30 04:21:08.460 ,7,1,0.,24.0,0.,24.0
1981-08-30 04:21:32.460 ,7,0,0.,24.0,0.,24.0
1981-08-30 04:21:56.460 ,7,1,0.,24.0,0.,24.0
1981-08-30 04:22:20.460 ,7,0,0.,24.0,0.,24.0
1981-08-30 04:22:44.460 ,6,1,0.,24.0,0.,24.0
1981-08-30 04:23:08.460 ,6,0,0.,24.0,0.,24.0
1981-08-30 04:23:32.460 ,5,1,0.,24.0,0.,24.0
1981-08-30 04:23:56.460 ,5,0,0.,24.0,0.,24.0
1981-08-30 04:24:20.460 ,4,1,0.,24.0,0.,24.0
1981-08-30 04:24:44.460 ,4,0,0.,24.0,0.,24.0
1981-08-30 04:25:08.460 ,3,1,0.,24.0,0.,24.0
1981-08-30 04:25:32.460 ,3,0,0.,24.0,0.,24.0
1981-08-30 04:25:56.460 ,2,1,0.,24.0,0.,24.0
1981-08-30 04:26:20.460 ,2,0,0.,24.0,0.,24.0
1981-08-30 04:26:44.460 ,1,1,0.,24.0,0.,24.0
1981-08-30 04:27:08.460 ,1,0,0.,24.0,0.,24.0
1981-08-30 04:27:32.460 ,0,1,0.,24.0,0.,24.0
1981-08-30 04:27:56.460 ,0,0,0.,24.0,0.,24.0
1981-08-30 04:28:20.460 ,0,1,0.,24.0,0.,24.0
1981-08-30 04:28:44.460 ,0,0,0.,24.0,0.,24.0
1981-08-30 04:29:08.460 ,1,1,0.,24.0,0.,24.0
1981-08-30 04:29:32.460 ,1,0,0.,24.0,0.,24.0
1981-08-30 04:29:56.460 ,2,1,0.,24.0,0.,24.0
1981-08-30 04:30:20.460 ,2,0,0.,24.0,0.,24.0
1981-08-30 04:30:44.460 ,3,1,0.,24.0,0.,24.0
1981-08-30 04:31:08.460 ,4,1,0.,24.0,0.,24.0
1981-08-30 04:31:32.460 ,5,1,0.,24.0,0.,24.0
1981-08-30 04:31:56.460 ,6,1,0.,24.0,0.,24.0
1981-08-30 04:32:20.460 ,7,1,0.,24.0,0.,24.0
1981-08-30 04:32:44.460 ,7,1,0.,24.0,0.,24.0
1981-08-30 04:33:08.460 ,6,1,0.,24.0,0.,24.0
1981-08-30 04:33:32.460 ,5,1,0.,24.0,0.,24.0
1981-08-30 04:33:56.460 ,4,1,0.,24.0,0.,24.0
1981-08-30 04:34:20.460 ,3,1,0.,24.0,0.,24.0
1981-08-30 04:34:44.460 ,2,1,0.,24.0,0.,24.0
1981-08-30 04:35:08.460 ,1,1,0.,24.0,0.,24.0
1981-08-30 04:35:32.460 ,0,1,0.,24.0,0.,24.0
1981-08-30 04:35:56.460 ,0,1,0.,24.0,0.,24.0
1981-08-30 04:36:20.460 ,1,1,0.,24.0,0.,24.0
1981-08-30 04:36:44.460 ,2,1,0.,24.0,0.,24.0
1981-08-30 04:37:08.460 ,3,1,0.,24.0,0.,24.0
1981-08-30 04:37:32.460 ,3,0,0.,24.0,0.,24.0
1981-08-30 04:37:56.460 ,4,1,0.,24.0,0.,24.0
1981-08-30 04:38:20.460 ,4,0,0.,24.0,0.,24.0
1981-08-30 04:38:44.460 ,5,1,0.,24.0,0.,24.0
1981-08-30 04:39:08.460 ,5,0,0.,24.0,0.,24.0
1981-08-30 04:39:32.460 ,6,1,0.,24.0,0.,24.0
1981-08-30 04:39:56.460 ,6,0,0.,24.0,0.,24.0
1981-08-30 04:40:20.460 ,7,1,0.,24.0,0.,24.0
1981-08-30 04:40:44.460 ,7,0,0.,24.0,0.,24.0
1981-08-30 04:41:08.460 ,7,1,0.,24.0,0.,24.0
1981-08-30 04:41:32.460 ,7,0,0.,24.0,0.,24.0
1981-08-30 04:41:56.460 ,6,1,0.,24.0,0.,24.0
1981-08-30 04:42:20.460 ,6,0,0.,24.0,0.,24.0
1981-08-30 04:42:44.460 ,5,1,0.,24.0,0.,24.0
1981-08-30 04:43:08.460 ,5,0,0.,24.0,0.,24.0
1981-08-30 04:43:32.460 ,4,1,0.,24.0,0.,24.0
1981-08-30 04:43:56.460 ,4,0,0.,24.0,0.,24.0
1981-08-30 04:44:20.460 ,3,1,0.,24.0,0.,24.0
1981-08-30 04:44:44.460 ,3,0,0.,24.0,0.,24.0
1981-08-30 04:45:08.460 ,2,1,0.,24.0,0.,24.0
1981-08-30 04:45:32.460 ,2,0,0.,24.0,0.,24.0
1981-08-30 04:45:56.460 ,1,1,0.,24.0,0.,24.0
1981-08-30 04:46:20.460 ,1,0,0.,24.0,0.,24.0
1981-08-30 04:46:44.460 ,0,1,0.,24.0,0.,24.0
1981-08-30 04:47:08.460 ,0,0,0.,24.0,0.,24.0
1981-08-30 04:47:54.060 ,0,0,,0,,0
1981-08-30 04:47:56.460 ,0,0,0.,24.0,0.,24.0
1981-08-30 04:48:20.460 ,1,1,0.,24.0,0.,24.0
1981-08-30 04:48:44.460 ,1,0,0.,24.0,0.,24.0
1981-08-30 04:49:08.460 ,2,1,0.,24.0,0.,24.0
1981-08-30 04:49:32.460 ,2,0,0.,24.0,0.,24.0
1981-08-30 04:49:56.460 ,3,1,0.,24.0,0.,24.0
1981-08-30 04:50:20.460 ,4,1,0.,24.0,0.,24.0
1981-08-30 04:50:44.460 ,5,1,0.,24.0,0.,24.0
1981-08-30 04:51:08.460 ,6,1,0.,24.0,0.,24.0
1981-08-30 04:51:32.460 ,7,1,0.,24.0,0.,24.0
1981-08-30 04:51:56.460 ,7,1,0.,24.0,0.,24.0
1981-08-30 04:52:20.460 ,6,1,0.,24.0,0.,24.0
1981-08-30 04:52:44.460 ,5,1,0.,24.0,0.,24.0
1981-08-30 04:53:08.460 ,4,1,0.,24.0,0.,24.0
1981-08-30 04:53:32.460 ,3,1,0.,24.0,0.,24.0
1981-08-30 04:53:56.460 ,2,1,0.,24.0,0.,24.0
1981-08-30 04:54:20.460 ,1,1,0.,24.0,0.,24.0
1981-08-30 04:54:44.460 ,0,1,0.,24.0,0.,24.0
1981-08-30 04:55:08.460 ,0,1,0.,24.0,0.,24.0
1981-08-30 04:55:32.460 ,1,1,0.,24.0,0.,24.0
1981-08-30 04:55:56.460 ,2,1,0.,24.0,0.,24.0
1981-08-30 04:56:20.460 ,3,1,0.,24.0,0.,24.0
1981-08-30 04:56:44.460 ,0,0,0.,24.0,0.,24.0
1981-08-30 04:57:15.060 ,0,0,0.,24.0,0.,24.0
1981-08-30 04:57:32.460 ,0,0,0.,24.0,0.,24.0
1981-08-30 04:57:56.460 ,5,1,0.,24.0,0.,24.0
1981-08-30 04:58:20.460 ,5,0,0.,24.0,0.,24.0
1981-08-30 04:58:44.460 ,6,1,0.,24.0,0.,24.0
1981-08-30 04:59:08.460 ,6,0,0.,24.0,0.,24.0
1981-08-30 04:59:32.460 ,7,1,0.,24.0,0.,24.0
1981-08-30 04:59:56.460 ,7,0,0.,24.0,0.,24.0
1981-08-30 05:00:20.460 ,7,1,0.,24.0,0.,24.0
1981-08-30 05:00:44.460 ,7,0,0.,24.0,0.,24.0
1981-08-30 05:01:08.460 ,6,1,0.,24.0,0.,24.0
1981-08-30 05:01:32.460 ,6,0,0.,24.0,0.,24.0
1981-08-30 05:01:56.460 ,5,1,0.,24.0,0.,24.0
1981-08-30 05:02:20.460 ,5,0,0.,24.0,0.,24.0
1981-08-30 05:02:44.460 ,4,1,0.,24.0,0.,24.0
1981-08-30 05:03:08.460 ,4,0,0.,24.0,0.,24.0
1981-08-30 05:03:32.460 ,3,1,0.,24.0,0.,24.0
1981-08-30 05:03:56.460 ,3,0,0.,24.0,0.,24.0
1981-08-30 05:04:20.460 ,2,1,0.,24.0,0.,24.0
1981-08-30 05:04:44.460 ,2,0,0.,24.0,0.,24.0
1981-08-30 05:05:08.460 ,1,1,0.,24.0,0.,24.0
1981-08-30 05:05:32.460 ,1,0,0.,24.0,0.,24.0
1981-08-30 05:05:56.460 ,0,1,0.,24.0,0.,24.0
1981-08-30 05:06:20.460 ,0,0,0.,24.0,0.,24.0
1981-08-30 05:06:44.460 ,0,1,0.,24.0,0.,24.0
1981-08-30 05:07:08.460 ,0,0,0.,24.0,0.,24.0
1981-08-30 05:07:32.460 ,1,1,0.,24.0,0.,24.0
1981-08-30 05:07:56.460 ,1,0,0.,24.0,0.,24.0
1981-08-30 05:08:20.460 ,2,1,0.,24.0,0.,24.0
1981-08-30 05:08:44.460 ,2,0,0.,24.0,0.,24.0
1981-08-30 05:09:08.460 ,3,1,0.,24.0,0.,24.0
1981-08-30 05:09:32.460 ,4,1,0.,24.0,0.,24.0
1981-08-30 05:09:56.460 ,5,1,0.,24.0,0.,24.0
1981-08-30 05:10:20.460 ,6,1,0.,24.0,0.,24.0
1981-08-30 05:10:44.460 ,7,1,0.,24.0,0.,24.0
1981-08-30 05:11:08.460 ,7,1,0.,24.0,0.,24.0
1981-08-30 05:11:32.460 ,6,1,0.,24.0,0.,24.0
1981-08-30 05:11:56.460 ,5,1,0.,24.0,0.,24.0
1981-08-30 05:12:20.460 ,4,1,0.,24.0,0.,24.0
1981-08-30 05:12:44.460 ,3,1,0.,24.0,0.,24.0
1981-08-30 05:13:08.460 ,2,1,0.,24.0,0.,24.0
1981-08-30 05:13:32.460 ,1,1,0.,24.0,0.,24.0
1981-08-30 05:13:56.460 ,0,1,0.,24.0,0.,24.0
1981-08-30 05:14:20.460 ,0,1,0.,24.0,0.,24.0
1981-08-30 05:14:44.460 ,1,1,0.,24.0,0.,24.0
1981-08-30 05:15:08.460 ,2,1,0.,24.0,0.,24.0
1981-08-30 05:15:32.460 ,3,1,0.,24.0,0.,24.0
1981-08-30 05:15:56.460 ,3,0,0.,24.0,0.,24.0
1981-08-30 05:16:20.460 ,4,1,0.,24.0,0.,24.0
1981-08-30 05:16:44.460 ,4,0,0.,24.0,0.,24.0
1981-08-30 05:17:08.460 ,5,1,0.,24.0,0.,24.0
1981-08-30 05:17:32.460 ,5,0,0.,24.0,0.,24.0
1981-08-30 05:17:56.460 ,6,1,0.,24.0,0.,24.0
1981-08-30 05:18:20.460 ,6,0,0.,24.0,0.,24.0
1981-08-30 05:18:44.460 ,7,1,0.,24.0,0.,24.0
1981-08-30 05:19:08.460 ,7,0,0.,24.0,0.,24.0
1981-08-30 05:19:32.460 ,7,1,0.,24.0,0.,24.0
1981-08-30 05:19:56.460 ,7,0,0.,24.0,0.,24.0
1981-08-30 05:20:20.460 ,6,1,0.,24.0,0.,24.0
1981-08-30 05:20:44.460 ,6,0,0.,24.0,0.,24.0
1981-08-30 05:21:08.460 ,5,1,0.,24.0,0.,24.0
1981-08-30 05:21:32.460 ,5,0,0.,24.0,0.,24.0
1981-08-30 05:21:56.460 ,4,1,0.,24.0,0.,24.0
1981-08-30 05:22:20.460 ,4,0,0.,24.0,0.,24.0
1981-08-30 05:22:44.460 ,3,1,0.,24.0,0.,24.0
1981-08-30 05:23:08.460 ,3,0,0.,24.0,0.,24.0
1981-08-30 05:23:32.460 ,2,1,0.,24.0,0.,24.0
1981-08-30 05:23:56.460 ,2,0,0.,24.0,0.,24.0
1981-08-30 05:24:20.460 ,1,1,0.,24.0,0.,24.0
1981-08-30 05:24:44.460 ,1,0,0.,24.0,0.,24.0
1981-08-30 05:25:08.460 ,0,1,0.,24.0,0.,24.0
1981-08-30 05:25:32.460 ,0,0,0.,24.0,0.,24.0
1981-08-30 05:25:56.460 ,0,1,0.,24.0,0.,24.0
1981-08-30 05:26:20.460 ,0,0,0.,24.0,0.,24.0
1981-08-30 05:26:44.460 ,1,1,0.,24.0,0.,24.0
1981-08-30 05:27:08.460 ,1,0,0.,24.0,0.,24.0
1981-08-30 05:27:32.460 ,2,1,0.,24.0,0.,24.0
1981-08-30 05:27:56.460 ,2,0,0.,24.0,0.,24.0
1981-08-30 05:28:20.460 ,3,1,0.,24.0,0.,24.0
1981-08-30 05:28:44.460 ,4,1,0.,24.0,0.,24.0
1981-08-30 05:29:08.460 ,5,1,0.,24.0,0.,24.0
1981-08-30 05:29:32.460 ,6,1,0.,24.0,0.,24.0
1981-08-30 05:29:56.460 ,7,1,0.,24.0,0.,24.0
1981-08-30 05:30:20.460 ,7,1,0.,24.0,0.,24.0
1981-08-30 05:30:44.460 ,6,1,0.,24.0,0.,24.0
1981-08-30 05:31:08.460 ,5,1,0.,24.0,0.,24.0
1981-08-30 05:31:32.460 ,4,1,0.,24.0,0.,24.0
1981-08-30 05:31:56.460 ,3,1,0.,24.0,0.,24.0
1981-08-30 05:32:20.460 ,2,1,0.,24.0,0.,24.0
1981-08-30 05:32:44.460 ,1,1,0.,24.0,0.,24.0
1981-08-30 05:33:08.460 ,0,1,0.,24.0,0.,24.0
1981-08-30 05:33:32.460 ,0,1,0.,24.0,0.,24.0
1981-08-30 05:33:56.460 ,1,1,0.,24.0,0.,24.0
1981-08-30 05:34:20.460 ,2,1,0.,24.0,0.,24.0
1981-08-30 05:34:44.460 ,3,1,0.,24.0,0.,24.0
1981-08-30 05:35:08.460 ,3,0,0.,24.0,0.,24.0
1981-08-30 05:35:32.460 ,0,0,,0,,0
1981-08-30 05:35:56.460 ,0,0,0.,24.0,0.,24.0
1981-08-30 05:36:20.460 ,5,1,0.,24.0,0.,24.0
1981-08-30 05:36:44.460 ,5,0,0.,24.0,0.,24.0
1981-08-30 05:37:08.460 ,6,1,0.,24.0,0.,24.0
1981-08-30 05:37:32.460 ,6,0,0.,24.0,0.,24.0
1981-08-30 05:37:56.460 ,7,1,0.,24.0,0.,24.0
1981-08-30 05:38:20.460 ,7,0,0.,24.0,0.,24.0
1981-08-30 05:38:44.460 ,7,1,0.,24.0,0.,24.0
1981-08-30 05:39:08.460 ,7,0,0.,24.0,0.,24.0
1981-08-30 05:39:32.460 ,6,1,0.,24.0,0.,24.0
1981-08-30 05:39:56.460 ,6,0,0.,24.0,0.,24.0
1981-08-30 05:40:20.460 ,5,1,0.,24.0,0.,24.0
1981-08-30 05:40:44.460 ,5,0,0.,24.0,0.,24.0
1981-08-30 05:41:08.460 ,4,1,0.,24.0,0.,24.0
1981-08-30 05:41:32.460 ,4,0,0.,24.0,0.,24.0
1981-08-30 05:41:56.460 ,3,1,0.,24.0,0.,24.0
1981-08-30 05:42:20.460 ,3,0,0.,24.0,0.,24.0
1981-08-30 05:42:44.460 ,2,1,0.,24.0,0.,24.0
1981-08-30 05:43:08.460 ,2,0,0.,24.0,0.,24.0
1981-08-30 05:43:32.460 ,1,1,0.,24.0,0.,24.0
1981-08-30 05:43:56.460 ,1,0,0.,24.0,0.,24.0
1981-08-30 05:44:20.460 ,0,1,0.,24.0,0.,24.0
1981-08-30 05:44:44.460 ,0,0,0.,24.0,0.,24.0
1981-08-30 05:45:08.460 ,0,1,0.,24.0,0.,24.0
1981-08-30 05:45:32.460 ,0,0,0.,24.0,0.,24.0
1981-08-30 05:45:56.460 ,1,1,0.,24.0,0.,24.0
1981-08-30 05:46:20.460 ,1,0,0.,24.0,0.,24.0
1981-08-30 05:46:44.460 ,2,1,0.,24.0,0.,24.0
1981-08-30 05:47:08.460 ,2,0,0.,24.0,0.,24.0
1981-08-30 05:47:32.460 ,3,1,0.,24.0,0.,24.0
1981-08-30 05:47:56.460 ,4,1,0.,24.0,0.,24.0
1981-08-30 05:48:20.460 ,5,1,0.,24.0,0.,24.0
1981-08-30 05:48:44.460 ,6,1,0.,24.0,0.,24.0
1981-08-30 05:49:08.460 ,7,1,0.,24.0,0.,24.0
1981-08-30 05:49:32.460 ,7,1,0.,24.0,0.,24.0
1981-08-30 05:49:56.460 ,6,1,0.,24.0,0.,24.0
1981-08-30 05:50:20.460 ,5,1,0.,24.0,0.,24.0
1981-08-30 05:50:44.460 ,4,1,0.,24.0,0.,24.0
1981-08-30 05:51:08.460 ,3,1,0.,24.0,0.,24.0
1981-08-30 05:51:32.460 ,2,1,0.,24.0,0.,24.0
1981-08-30 05:51:56.460 ,1,1,0.,24.0,0.,24.0
1981-08-30 05:52:20.460 ,0,1,0.,24.0,0.,24.0
1981-08-30 05:52:44.460 ,0,1,0.,24.0,0.,24.0
1981-08-30 05:53:08.460 ,1,1,0.,24.0,0.,24.0
1981-08-30 05:53:32.460 ,2,1,0.,24.0,0.,24.0
1981-08-30 05:53:56.460 ,3,1,0.,24.0,0.,24.0
1981-08-30 05:54:20.460 ,3,0,0.,24.0,0.,24.0
1981-08-30 05:54:44.460 ,4,1,0.,24.0,0.,24.0
1981-08-30 05:55:08.460 ,4,0,0.,24.0,0.,24.0
1981-08-30 05:55:32.460 ,5,1,0.,24.0,0.,24.0
1981-08-30 05:55:56.460 ,5,0,0.,24.0,0.,24.0
1981-08-30 05:56:20.460 ,6,1,0.,24.0,0.,24.0
1981-08-30 05:56:44.460 ,6,0,0.,24.0,0.,24.0
1981-08-30 05:57:08.460 ,7,1,0.,24.0,0.,24.0
1981-08-30 05:57:32.460 ,7,0,0.,24.0,0.,24.0
1981-08-30 05:57:56.460 ,7,1,0.,24.0,0.,24.0
1981-08-30 05:58:20.460 ,7,0,0.,24.0,0.,24.0
1981-08-30 05:58:44.460 ,6,1,0.,24.0,0.,24.0
1981-08-30 05:59:08.460 ,6,0,0.,24.0,0.,24.0
1981-08-30 05:59:32.460 ,5,1,0.,24.0,0.,24.0
1981-08-30 05:59:56.460 ,5,0,0.,24.0,0.,24.0
1981-08-30 06:00:20.460 ,4,1,0.,24.0,0.,24.0
